Date String (YYYY-MM-DD hh:mm:ss) UTC,Instrument flags,Ambient pressure (hPa),Sample flow (lpm),Bypass flow (lpm),Sample temperature (°C),Ambient temperature (°C),ASC tube jacket temperature (°C),LED temperature (°C),Box temperature (°C),Sample RH (%),Span deviation,Mass concentration (μg/m³),Mass concentration (μg/m³),Mass concentration (μg/m³)
DateTimeUTC,F1_M11,P_M11,Q1_M11,Q2_M11,T1_M11,T2_M11,T3_M11,T4_M11,T5_M11,U1_M11,ZSPAN_M11,X0_M11,X2_M11,X1_M11
2021-08-22 21:00:00,,0824.6,5.00,0.00,29.5,28.5,00.0,38.4,31.4,17.9,0001.2,0016.24,0011.62,0011.25
2021-08-22 21:01:00,,0824.6,5.00,0.00,29.5,28.6,00.0,38.4,31.4,17.6,0001.4,0016.38,0011.70,0011.32
2021-08-22 21:02:00,,0824.6,5.00,0.00,29.5,27.4,00.0,38.5,31.1,15.9,0001.7,0016.16,0011.84,0011.45
2021-08-22 21:03:00,,0824.6,5.00,0.00,29.3,26.0,00.0,38.4,30.7,17.7,0001.6,0015.93,0011.94,0011.56
2021-08-22 21:04:00,,0824.6,5.01,0.00,29.3,26.2,00.0,38.4,30.7,17.8,0002.1,0015.98,0012.06,0011.68
2021-08-22 21:05:00,,0824.7,4.99,0.00,29.2,26.6,00.0,38.4,30.9,16.8,0002.1,0015.97,0012.12,0011.75
2021-08-22 21:06:00,,0824.7,5.00,0.00,29.2,27.0,00.0,38.4,30.9,15.2,0002.4,0016.11,0012.15,0011.76
2021-08-22 21:07:00,,0824.6,5.01,0.00,29.3,27.5,00.0,38.4,31.0,15.6,0002.6,0016.42,0012.09,0011.72
2021-08-22 21:08:00,,0824.6,4.99,0.00,29.3,27.9,00.0,38.3,31.1,15.7,0002.7,0017.01,0012.07,0011.69
2021-08-22 21:09:00,,0824.6,5.00,0.00,29.4,28.2,00.0,38.4,31.3,16.5,0001.9,0017.18,0012.03,0011.64
2021-08-22 21:10:00,,0824.5,5.01,0.00,29.4,28.4,00.0,38.4,31.3,16.1,0001.7,0017.04,0011.96,0011.58
2021-08-22 21:11:00,,0824.6,5.00,0.00,29.5,28.6,00.0,38.4,31.4,15.1,0002.1,0016.98,0011.91,0011.50
2021-08-22 21:12:00,,0824.6,5.01,0.00,29.5,27.6,00.0,38.4,31.1,15.9,0002.3,0016.96,0011.80,0011.37
2021-08-22 21:13:00,,0824.4,5.01,0.00,29.3,26.0,00.0,38.4,30.7,16.7,0001.7,0016.90,0011.61,0011.19
2021-08-22 21:14:00,,0824.6,4.99,0.00,29.2,26.1,00.0,38.4,30.7,15.4,0001.4,0016.87,0011.41,0011.00
2021-08-22 21:15:00,,0824.4,5.00,0.00,29.2,26.5,00.0,38.4,30.8,15.6,0001.0,0016.69,0011.20,0010.78
2021-08-22 21:16:00,,0824.4,4.98,0.00,29.2,26.9,00.0,38.3,30.9,16.1,0000.8,0016.53,0011.02,0010.58
2021-08-22 21:17:00,,0824.6,5.01,0.00,29.2,27.4,00.0,38.3,31.0,16.5,0000.4,0016.27,0010.87,0010.42
2021-08-22 21:18:00,,0824.5,4.99,0.00,29.3,27.7,00.0,38.3,31.1,16.4,0000.4,0015.91,0010.79,0010.33
2021-08-22 21:19:00,,0824.4,5.00,0.00,29.3,28.1,00.0,38.3,31.2,15.6,0000.1,0015.87,0010.70,0010.23
2021-08-22 21:20:00,,0824.4,5.00,0.00,29.4,28.3,00.0,38.4,31.3,15.3,0000.4,0016.76,0010.60,0010.13
2021-08-22 21:21:00,,0824.4,5.00,0.00,29.4,28.5,00.0,38.4,31.4,14.9,0000.8,0016.64,0010.51,0010.03
2021-08-22 21:22:00,,0824.5,5.01,0.00,29.5,27.8,00.0,38.4,31.1,15.0,0000.7,0016.44,0010.41,0009.97
2021-08-22 21:23:00,,0824.4,5.00,0.00,29.3,26.1,00.0,38.4,30.6,15.5,0000.5,0016.17,0010.28,0009.86
2021-08-22 21:24:00,,0824.4,5.01,0.00,29.2,26.0,00.0,38.4,30.6,15.6,0000.7,0015.82,0010.12,0009.71
2021-08-22 21:25:00,,0824.4,5.00,0.00,29.2,26.4,00.0,38.3,30.7,16.4,0000.8,0015.49,0009.99,0009.57
2021-08-22 21:26:00,,0824.4,4.99,0.00,29.1,26.9,00.0,38.3,30.8,16.5,0000.9,0015.31,0009.90,0009.48
2021-08-22 21:27:00,,0824.4,5.01,0.00,29.2,27.3,00.0,38.3,30.9,16.0,0001.2,0015.27,0009.84,0009.43
2021-08-22 21:28:00,,0824.4,4.99,0.00,29.2,27.7,00.0,38.3,31.0,16.0,0001.0,0015.40,0009.78,0009.39
2021-08-22 21:29:00,,0824.4,5.00,0.00,29.3,28.0,00.0,38.3,31.1,15.7,0001.1,0015.12,0009.71,0009.33
2021-08-22 21:30:00,,0824.4,5.01,0.00,29.3,28.3,00.0,38.3,31.2,15.6,0001.2,0014.32,0009.64,0009.28
2021-08-22 21:31:00,,0824.4,5.00,0.00,29.4,28.5,00.0,38.3,31.3,16.4,0001.4,0013.12,0009.59,0009.23
2021-08-22 21:32:00,,0824.4,5.01,0.00,29.5,28.6,00.0,38.4,31.3,15.5,0001.4,0013.05,0009.53,0009.18
2021-08-22 21:33:00,,0824.3,5.01,0.00,29.4,27.2,00.0,38.4,31.0,15.4,0001.5,0013.11,0009.50,0009.15
2021-08-22 21:34:00,,0824.3,5.01,0.00,29.2,25.9,00.0,38.3,30.6,15.7,0001.5,0013.10,0009.51,0009.17
2021-08-22 21:35:00,,0824.3,4.99,0.00,29.2,26.2,00.0,38.3,30.6,16.5,0001.4,0013.14,0009.56,0009.22
2021-08-22 21:36:00,,0824.4,5.00,0.00,29.1,26.6,00.0,38.3,30.7,15.6,0001.4,0013.68,0009.60,0009.27
2021-08-22 21:37:00,,0824.3,4.99,0.00,29.1,27.0,00.0,38.3,30.8,15.1,0001.3,0013.91,0009.69,0009.33
2021-08-22 21:38:00,,0824.3,5.01,0.00,29.2,27.4,00.0,38.3,31.0,15.1,0001.3,0013.83,0009.68,0009.32
2021-08-22 21:39:00,,0824.3,5.00,0.00,29.2,27.8,00.0,38.3,31.1,16.6,0001.3,0013.55,0009.64,0009.29
2021-08-22 21:40:00,,0824.3,5.00,0.00,29.3,28.1,00.0,38.3,31.2,17.0,0001.4,0013.51,0009.63,0009.28
2021-08-22 21:41:00,,0824.3,5.02,0.00,29.4,28.4,00.0,38.3,31.3,16.8,0001.6,0013.53,0009.63,0009.29
2021-08-22 21:42:00,,0824.3,5.00,0.00,29.4,28.1,00.0,38.3,31.2,16.5,0001.7,0013.54,0009.63,0009.29
2021-08-22 21:43:00,,0824.2,4.99,0.00,29.3,26.4,00.0,38.3,30.7,16.4,0001.7,0013.63,0009.69,0009.34
2021-08-22 21:44:00,,0824.2,4.99,0.00,29.1,25.8,00.0,38.3,30.5,15.4,0001.8,0013.74,0009.86,0009.50
2021-08-22 21:45:00,,0824.2,5.00,0.00,29.1,26.2,00.0,38.3,30.6,15.5,0001.7,0014.08,0010.12,0009.72
2021-08-22 21:46:00,,0824.2,5.01,0.00,29.1,26.6,00.0,38.3,30.7,15.2,0001.7,0014.36,0010.37,0009.96
2021-08-22 21:47:00,,0824.2,4.98,0.00,29.1,27.1,00.0,38.2,30.8,15.0,0001.6,0014.01,0010.55,0010.14
2021-08-22 21:48:00,,0824.2,5.01,0.00,29.1,27.5,00.0,38.2,31.0,15.3,0001.9,0014.11,0010.67,0010.28
2021-08-22 21:49:00,,0824.3,4.99,0.00,29.2,27.9,00.0,38.2,31.1,15.2,0001.7,0014.23,0010.76,0010.36
2021-08-22 21:50:00,,0824.3,5.00,0.00,29.3,28.2,00.0,38.3,31.2,15.1,0002.3,0014.34,0010.86,0010.45
2021-08-22 21:51:00,,0824.3,4.99,0.00,29.3,28.0,00.0,38.3,31.1,15.6,0002.1,0014.40,0010.94,0010.53
2021-08-22 21:52:00,,0824.3,5.00,0.00,29.2,26.3,00.0,38.3,30.6,16.1,0001.8,0014.54,0011.03,0010.62
2021-08-22 21:53:00,,0824.2,5.01,0.00,29.1,25.7,00.0,38.2,30.4,15.4,0001.9,0014.60,0011.12,0010.71
2021-08-22 21:54:00,,0824.3,4.99,0.00,29.0,26.1,00.0,38.2,30.6,16.4,0001.7,0014.71,0011.19,0010.77
2021-08-22 21:55:00,,0824.3,4.99,0.00,29.0,26.6,00.0,38.2,30.7,16.1,0001.4,0015.00,0011.13,0010.72
2021-08-22 21:56:00,,0824.2,5.00,0.00,29.0,27.0,00.0,38.2,30.8,15.4,0001.5,0015.22,0010.96,0010.60
2021-08-22 21:57:00,,0824.4,4.99,0.00,29.1,27.4,00.0,38.2,30.9,15.5,0001.6,0015.42,0010.83,0010.49
2021-08-22 21:58:00,,0824.2,5.01,0.00,29.1,27.8,00.0,38.2,31.0,15.7,0001.7,0015.70,0010.78,0010.43
2021-08-22 21:59:00,,0824.2,4.98,0.00,29.2,28.1,00.0,38.2,31.1,16.2,0001.6,0015.58,0010.74,0010.42
